Time,TemperatureF,DewpointF,PressureIn,WindDirection,WindDirectionDegrees,WindSpeedMPH,WindSpeedGustMPH,Humidity,HourlyPrecipIn,Conditions,Clouds,dailyrainin,SoftwareType,DateUTC
2013-04-05 00:00:00,42.1,39.1,29.89,North,0,2.0,10.0,89,0.09,,,0.70,WUHU216DAVISVP2,2013-04-05 04:00:00,
2013-04-05 00:05:00,42.2,39.2,29.89,NE,38,1.0,8.0,89,0.08,,,0.70,WUHU216DAVISVP2,2013-04-05 04:05:00,
2013-04-05 00:10:00,42.2,39.2,29.89,NNW,340,0.0,8.0,89,0.08,,,0.70,WUHU216DAVISVP2,2013-04-05 04:10:00,
2013-04-05 00:15:00,42.3,39.3,29.87,NW,309,0.0,4.0,89,0.08,,,0.71,WUHU216DAVISVP2,2013-04-05 04:15:00,
2013-04-05 00:20:00,42.3,39.3,29.87,NNE,21,1.0,7.0,89,0.08,,,0.71,WUHU216DAVISVP2,2013-04-05 04:20:00,
2013-04-05 00:25:00,42.6,39.5,29.87,North,1,0.0,7.0,89,0.07,,,0.71,WUHU216DAVISVP2,2013-04-05 04:25:00,
2013-04-05 00:30:00,42.5,39.4,29.86,NW,313,0.0,7.0,89,0.07,,,0.71,WUHU216DAVISVP2,2013-04-05 04:30:00,
2013-04-05 00:35:00,42.3,39.5,29.86,NNW,342,1.0,7.0,90,0.07,,,0.72,WUHU216DAVISVP2,2013-04-05 04:35:00,
2013-04-05 00:40:00,42.6,39.8,29.86,North,0,2.0,8.0,90,0.04,,,0.72,WUHU216DAVISVP2,2013-04-05 04:40:00,
2013-04-05 00:45:00,42.6,39.8,29.85,North,0,0.0,8.0,90,0.03,,,0.72,WUHU216DAVISVP2,2013-04-05 04:45:00,
2013-04-05 00:50:00,42.6,39.8,29.85,North,0,0.0,6.0,90,0.02,,,0.72,WUHU216DAVISVP2,2013-04-05 04:50:00,
2013-04-05 00:55:00,42.6,39.8,29.85,North,10,0.0,6.0,90,0.02,,,0.72,WUHU216DAVISVP2,2013-04-05 04:55:00,
2013-04-05 01:00:00,43.1,40.3,29.86,North,8,0.0,6.0,90,0.03,,,0.00,WUHU216DAVISVP2,2013-04-05 05:00:00,
2013-04-05 01:05:00,43.1,40.3,29.86,NE,40,0.0,6.0,90,0.03,,,0.00,WUHU216DAVISVP2,2013-04-05 05:05:00,
2013-04-05 01:10:00,42.9,40.1,29.86,NE,34,0.0,4.0,90,0.03,,,0.00,WUHU216DAVISVP2,2013-04-05 05:10:00,
2013-04-05 01:15:00,42.9,40.1,29.85,NNE,17,1.0,2.0,90,0.02,,,0.00,WUHU216DAVISVP2,2013-04-05 05:15:00,
2013-04-05 01:20:00,42.9,40.1,29.85,North,0,1.0,2.0,90,0.02,,,0.00,WUHU216DAVISVP2,2013-04-05 05:20:00,
2013-04-05 01:25:00,42.9,40.1,29.85,NW,315,0.0,1.0,90,0.02,,,0.00,WUHU216DAVISVP2,2013-04-05 05:25:00,
2013-04-05 01:30:00,43.2,40.4,29.85,North,0,0.0,4.0,90,0.02,,,0.00,WUHU216DAVISVP2,2013-04-05 05:30:00,
2013-04-05 01:35:00,43.3,40.5,29.85,North,353,0.0,7.0,90,0.01,,,0.00,WUHU216DAVISVP2,2013-04-05 05:35:00,
2013-04-05 01:40:00,43.2,40.4,29.85,North,353,2.0,8.0,90,0.01,,,0.00,WUHU216DAVISVP2,2013-04-05 05:40:00,
2013-04-05 01:45:00,43.2,40.4,29.84,NNW,340,0.0,8.0,90,0.01,,,0.00,WUHU216DAVISVP2,2013-04-05 05:45:00,
2013-04-05 01:50:00,43.3,40.5,29.84,NNW,340,1.0,2.0,90,0.01,,,0.00,WUHU216DAVISVP2,2013-04-05 05:50:00,
2013-04-05 01:55:00,43.5,40.7,29.84,NNW,337,0.0,2.0,90,0.01,,,0.00,WUHU216DAVISVP2,2013-04-05 05:55:00,
2013-04-05 02:00:00,43.6,40.8,29.84,NNW,332,0.0,4.0,90,0.01,,,0.01,WUHU216DAVISVP2,2013-04-05 06:00:00,
2013-04-05 02:05:00,43.9,41.1,29.84,NNE,13,0.0,4.0,90,0.01,,,0.01,WUHU216DAVISVP2,2013-04-05 06:05:00,
2013-04-05 02:10:00,43.9,41.2,29.84,North,0,2.0,4.0,90,0.02,,,0.02,WUHU216DAVISVP2,2013-04-05 06:10:00,
2013-04-05 02:15:00,43.9,41.2,29.83,North,352,1.0,6.0,90,0.02,,,0.02,WUHU216DAVISVP2,2013-04-05 06:15:00,
2013-04-05 02:20:00,44.1,41.3,29.83,NNW,343,1.0,6.0,90,0.02,,,0.02,WUHU216DAVISVP2,2013-04-05 06:20:00,
2013-04-05 02:25:00,44.1,41.3,29.83,NNW,330,1.0,6.0,90,0.02,,,0.02,WUHU216DAVISVP2,2013-04-05 06:25:00,
2013-04-05 02:30:00,44.2,41.4,29.83,North,353,0.0,6.0,90,0.02,,,0.02,WUHU216DAVISVP2,2013-04-05 06:30:00,
2013-04-05 02:35:00,44.2,41.4,29.83,North,356,2.0,6.0,90,0.02,,,0.02,WUHU216DAVISVP2,2013-04-05 06:35:00,
2013-04-05 02:40:00,44.2,41.4,29.83,North,0,2.0,6.0,90,0.02,,,0.02,WUHU216DAVISVP2,2013-04-05 06:40:00,
2013-04-05 02:45:00,44.5,41.7,29.82,North,0,0.0,6.0,90,0.02,,,0.02,WUHU216DAVISVP2,2013-04-05 06:45:00,
2013-04-05 02:50:00,44.5,41.7,29.82,North,359,0.0,6.0,90,0.02,,,0.02,WUHU216DAVISVP2,2013-04-05 06:50:00,
2013-04-05 02:55:00,44.3,41.5,29.82,North,354,0.0,6.0,90,0.02,,,0.02,WUHU216DAVISVP2,2013-04-05 06:55:00,
2013-04-05 03:00:00,44.2,41.4,29.82,NW,315,1.0,4.0,90,0.01,,,0.02,WUHU216DAVISVP2,2013-04-05 07:00:00,
2013-04-05 03:05:00,44.3,41.5,29.82,NNW,336,0.0,4.0,90,0.01,,,0.02,WUHU216DAVISVP2,2013-04-05 07:05:00,
2013-04-05 03:10:00,44.3,41.5,29.82,NNW,342,0.0,4.0,90,0.00,,,0.02,WUHU216DAVISVP2,2013-04-05 07:10:00,
2013-04-05 03:15:00,44.5,41.7,29.82,North,0,4.0,4.0,90,0.01,,,0.03,WUHU216DAVISVP2,2013-04-05 07:15:00,
2013-04-05 03:20:00,44.5,41.7,29.82,NNW,343,0.0,7.0,90,0.01,,,0.03,WUHU216DAVISVP2,2013-04-05 07:20:00,
2013-04-05 03:26:00,44.9,42.1,29.82,North,0,0.0,7.0,90,0.01,,,0.03,WUHU216DAVISVP2,2013-04-05 07:26:00,
2013-04-05 03:31:00,44.6,41.8,29.82,North,359,2.0,6.0,90,0.01,,,0.03,WUHU216DAVISVP2,2013-04-05 07:31:00,
2013-04-05 03:36:00,44.6,41.8,29.82,NW,326,2.0,6.0,90,0.01,,,0.03,WUHU216DAVISVP2,2013-04-05 07:36:00,
2013-04-05 03:41:00,44.6,41.8,29.82,NNE,31,0.0,4.0,90,0.01,,,0.03,WUHU216DAVISVP2,2013-04-05 07:41:00,
2013-04-05 03:47:00,45.2,42.4,29.83,NNE,18,0.0,4.0,90,0.01,,,0.03,WUHU216DAVISVP2,2013-04-05 07:47:00,
2013-04-05 03:52:00,45.2,42.4,29.83,NNE,18,0.0,4.0,90,0.01,,,0.03,WUHU216DAVISVP2,2013-04-05 07:52:00,
2013-04-05 03:57:00,45.1,42.3,29.83,North,7,0.0,6.0,90,0.01,,,0.03,WUHU216DAVISVP2,2013-04-05 07:57:00,
2013-04-05 04:02:00,44.9,42.1,29.84,North,1,2.0,6.0,90,0.01,,,0.03,WUHU216DAVISVP2,2013-04-05 08:02:00,
2013-04-05 04:07:00,45.1,42.3,29.84,North,0,0.0,6.0,90,0.01,,,0.03,WUHU216DAVISVP2,2013-04-05 08:07:00,
2013-04-05 04:12:00,44.8,42.0,29.84,North,0,0.0,6.0,90,0.01,,,0.03,WUHU216DAVISVP2,2013-04-05 08:12:00,
2013-04-05 04:17:00,44.5,41.7,29.84,North,0,2.0,8.0,90,0.00,,,0.03,WUHU216DAVISVP2,2013-04-05 08:17:00,
2013-04-05 04:22:00,44.3,41.5,29.84,North,0,4.0,8.0,90,0.00,,,0.03,WUHU216DAVISVP2,2013-04-05 08:22:00,
2013-04-05 04:27:00,44.2,41.4,29.84,NW,308,0.0,6.0,90,0.00,,,0.03,WUHU216DAVISVP2,2013-04-05 08:27:00,
2013-04-05 04:32:00,44.5,41.7,29.85,NW,304,1.0,6.0,90,0.00,,,0.03,WUHU216DAVISVP2,2013-04-05 08:32:00,
2013-04-05 04:37:00,43.9,41.1,29.85,NW,313,0.0,9.0,90,0.00,,,0.03,WUHU216DAVISVP2,2013-04-05 08:37:00,
2013-04-05 04:42:00,43.9,41.1,29.85,NNW,346,0.0,9.0,90,0.00,,,0.03,WUHU216DAVISVP2,2013-04-05 08:42:00,
2013-04-05 04:47:00,43.8,41.0,29.86,North,356,0.0,8.0,90,0.00,,,0.03,WUHU216DAVISVP2,2013-04-05 08:47:00,
2013-04-05 04:52:00,43.8,41.0,29.86,NNW,346,0.0,8.0,90,0.00,,,0.03,WUHU216DAVISVP2,2013-04-05 08:52:00,
2013-04-05 04:57:00,43.6,40.8,29.86,NNW,346,0.0,4.0,90,0.00,,,0.03,WUHU216DAVISVP2,2013-04-05 08:57:00,
2013-04-05 05:02:00,43.5,40.7,29.86,NNW,346,0.0,7.0,90,0.00,,,0.03,WUHU216DAVISVP2,2013-04-05 09:02:00,
2013-04-05 05:07:00,43.5,40.7,29.86,NNW,335,1.0,7.0,90,0.00,,,0.03,WUHU216DAVISVP2,2013-04-05 09:07:00,
2013-04-05 05:12:00,43.5,40.7,29.86,NNW,328,0.0,4.0,90,0.00,,,0.03,WUHU216DAVISVP2,2013-04-05 09:12:00,
2013-04-05 05:17:00,43.3,40.5,29.86,NNW,328,4.0,6.0,90,0.00,,,0.03,WUHU216DAVISVP2,2013-04-05 09:17:00,
2013-04-05 05:22:00,43.3,40.5,29.86,NW,325,4.0,7.0,90,0.00,,,0.03,WUHU216DAVISVP2,2013-04-05 09:22:00,
2013-04-05 05:27:00,43.1,40.3,29.86,North,350,2.0,9.0,90,0.00,,,0.03,WUHU216DAVISVP2,2013-04-05 09:27:00,
2013-04-05 05:32:00,43.1,40.3,29.86,NNW,337,0.0,9.0,90,0.00,,,0.03,WUHU216DAVISVP2,2013-04-05 09:32:00,
2013-04-05 05:37:00,43.1,40.3,29.86,NNW,337,1.0,4.0,90,0.00,,,0.03,WUHU216DAVISVP2,2013-04-05 09:37:00,
2013-04-05 05:42:00,43.1,40.3,29.86,NNW,336,0.0,2.0,90,0.00,,,0.03,WUHU216DAVISVP2,2013-04-05 09:42:00,
2013-04-05 05:47:00,43.1,40.3,29.85,NNW,337,0.0,4.0,90,0.00,,,0.03,WUHU216DAVISVP2,2013-04-05 09:47:00,
2013-04-05 05:52:00,42.9,40.1,29.85,NNW,333,0.0,7.0,90,0.00,,,0.03,WUHU216DAVISVP2,2013-04-05 09:52:00,
2013-04-05 05:57:00,43.1,40.3,29.85,North,3,2.0,8.0,90,0.00,,,0.03,WUHU216DAVISVP2,2013-04-05 09:57:00,
2013-04-05 06:02:00,42.9,40.1,29.84,North,0,2.0,8.0,90,0.00,,,0.03,WUHU216DAVISVP2,2013-04-05 10:02:00,
2013-04-05 06:07:00,42.8,40.0,29.84,NNW,343,2.0,7.0,90,0.00,,,0.03,WUHU216DAVISVP2,2013-04-05 10:07:00,
2013-04-05 06:12:00,42.8,40.0,29.84,NNW,330,2.0,7.0,90,0.00,,,0.03,WUHU216DAVISVP2,2013-04-05 10:12:00,
2013-04-05 06:18:00,42.8,40.0,29.85,NNW,330,0.0,6.0,90,0.00,,,0.03,WUHU216DAVISVP2,2013-04-05 10:18:00,
2013-04-05 06:23:00,42.8,40.0,29.85,NW,319,0.0,4.0,90,0.00,,,0.03,WUHU216DAVISVP2,2013-04-05 10:23:00,
2013-04-05 06:28:00,42.8,40.0,29.85,NW,319,0.0,4.0,90,0.00,,,0.03,WUHU216DAVISVP2,2013-04-05 10:28:00,
2013-04-05 06:33:00,42.8,40.0,29.87,NW,320,2.0,6.0,90,0.00,,,0.03,WUHU216DAVISVP2,2013-04-05 10:33:00,
2013-04-05 06:38:00,42.8,40.0,29.87,NW,312,0.0,6.0,90,0.00,,,0.03,WUHU216DAVISVP2,2013-04-05 10:38:00,
2013-04-05 06:43:00,42.6,39.8,29.87,North,353,7.0,8.0,90,0.00,,,0.03,WUHU216DAVISVP2,2013-04-05 10:43:00,
2013-04-05 06:48:00,42.9,40.1,29.86,North,352,0.0,10.0,90,0.00,,,0.03,WUHU216DAVISVP2,2013-04-05 10:48:00,
2013-04-05 06:53:00,42.8,40.0,29.86,NW,326,1.0,10.0,90,0.00,,,0.03,WUHU216DAVISVP2,2013-04-05 10:53:00,
2013-04-05 06:58:00,43.1,40.3,29.86,NW,315,1.0,6.0,90,0.00,,,0.03,WUHU216DAVISVP2,2013-04-05 10:58:00,
2013-04-05 07:03:00,43.1,40.3,29.87,NW,316,0.0,4.0,90,0.00,,,0.03,WUHU216DAVISVP2,2013-04-05 11:03:00,
2013-04-05 07:08:00,42.8,40.0,29.87,NW,316,0.0,2.0,90,0.00,,,0.03,WUHU216DAVISVP2,2013-04-05 11:08:00,
2013-04-05 07:13:00,42.8,40.0,29.87,NW,318,1.0,1.0,90,0.00,,,0.03,WUHU216DAVISVP2,2013-04-05 11:13:00,
2013-04-05 07:18:00,43.2,40.4,29.87,NNW,344,0.0,6.0,90,0.00,,,0.03,WUHU216DAVISVP2,2013-04-05 11:18:00,
2013-04-05 07:23:00,43.2,40.4,29.87,NNW,340,0.0,6.0,90,0.00,,,0.03,WUHU216DAVISVP2,2013-04-05 11:23:00,
2013-04-05 07:28:00,42.9,40.4,29.87,NNW,340,0.0,6.0,91,0.00,,,0.03,WUHU216DAVISVP2,2013-04-05 11:28:00,
2013-04-05 07:33:00,43.1,40.6,29.87,NNW,340,0.0,4.0,91,0.00,,,0.03,WUHU216DAVISVP2,2013-04-05 11:33:00,
2013-04-05 07:38:00,43.5,41.0,29.87,NNW,340,0.0,6.0,91,0.00,,,0.03,WUHU216DAVISVP2,2013-04-05 11:38:00,
2013-04-05 07:43:00,43.2,40.7,29.87,North,349,1.0,6.0,91,0.00,,,0.03,WUHU216DAVISVP2,2013-04-05 11:43:00,
2013-04-05 07:48:00,43.3,40.8,29.88,NNE,24,0.0,4.0,91,0.00,,,0.03,WUHU216DAVISVP2,2013-04-05 11:48:00,
2013-04-05 07:53:00,43.3,40.8,29.88,NNW,340,1.0,7.0,91,0.00,,,0.03,WUHU216DAVISVP2,2013-04-05 11:53:00,
2013-04-05 07:58:00,43.5,41.0,29.88,NNW,339,1.0,7.0,91,0.00,,,0.03,WUHU216DAVISVP2,2013-04-05 11:58:00,
2013-04-05 08:03:00,43.5,41.0,29.88,NNW,342,4.0,6.0,91,0.00,,,0.03,WUHU216DAVISVP2,2013-04-05 12:03:00,
2013-04-05 08:08:00,43.6,41.1,29.88,North,11,2.0,7.0,91,0.00,,,0.03,WUHU216DAVISVP2,2013-04-05 12:08:00,
2013-04-05 08:13:00,43.6,41.1,29.88,North,0,0.0,7.0,91,0.00,,,0.03,WUHU216DAVISVP2,2013-04-05 12:13:00,
2013-04-05 08:18:00,43.9,41.4,29.86,North,0,1.0,7.0,91,0.00,,,0.03,WUHU216DAVISVP2,2013-04-05 12:18:00,
2013-04-05 08:23:00,43.9,41.4,29.86,North,353,4.0,6.0,91,0.00,,,0.03,WUHU216DAVISVP2,2013-04-05 12:23:00,
2013-04-05 08:28:00,44.2,41.7,29.86,NW,315,4.0,9.0,91,0.00,,,0.03,WUHU216DAVISVP2,2013-04-05 12:28:00,
2013-04-05 08:33:00,44.2,41.7,29.88,NNE,21,1.0,9.0,91,0.00,,,0.03,WUHU216DAVISVP2,2013-04-05 12:33:00,
2013-04-05 08:39:00,44.2,41.7,29.88,NNE,20,0.0,6.0,91,0.00,,,0.03,WUHU216DAVISVP2,2013-04-05 12:39:00,
2013-04-05 08:44:00,44.2,41.7,29.88,North,354,0.0,7.0,91,0.00,,,0.03,WUHU216DAVISVP2,2013-04-05 12:44:00,
2013-04-05 08:49:00,44.3,41.8,29.89,North,354,0.0,7.0,91,0.00,,,0.03,WUHU216DAVISVP2,2013-04-05 12:49:00,
2013-04-05 08:54:00,44.2,41.7,29.89,North,0,1.0,4.0,91,0.00,,,0.03,WUHU216DAVISVP2,2013-04-05 12:54:00,
2013-04-05 08:59:00,44.3,41.8,29.89,North,0,0.0,2.0,91,0.00,,,0.03,WUHU216DAVISVP2,2013-04-05 12:59:00,
2013-04-05 09:04:00,44.3,41.8,29.90,NNW,347,0.0,6.0,91,0.00,,,0.03,WUHU216DAVISVP2,2013-04-05 13:04:00,
2013-04-05 09:09:00,44.5,42.0,29.90,North,359,4.0,7.0,91,0.00,,,0.03,WUHU216DAVISVP2,2013-04-05 13:09:00,
2013-04-05 09:14:00,44.6,42.1,29.91,NW,312,1.0,7.0,91,0.00,,,0.03,WUHU216DAVISVP2,2013-04-05 13:14:00,
2013-04-05 09:19:00,45.1,42.6,29.91,North,0,6.0,7.0,91,0.00,,,0.03,WUHU216DAVISVP2,2013-04-05 13:19:00,
2013-04-05 09:25:00,44.8,42.3,29.91,North,353,2.0,7.0,91,0.00,,,0.03,WUHU216DAVISVP2,2013-04-05 13:25:00,
2013-04-05 09:30:00,44.9,42.4,29.90,North,354,0.0,7.0,91,0.00,,,0.03,WUHU216DAVISVP2,2013-04-05 13:30:00,
2013-04-05 09:35:00,44.9,42.4,29.90,NNW,339,2.0,6.0,91,0.00,,,0.03,WUHU216DAVISVP2,2013-04-05 13:35:00,
2013-04-05 09:40:00,45.2,42.7,29.90,NNE,21,0.0,6.0,91,0.00,,,0.03,WUHU216DAVISVP2,2013-04-05 13:40:00,
2013-04-05 09:45:00,45.4,42.9,29.91,NW,311,0.0,6.0,91,0.00,,,0.03,WUHU216DAVISVP2,2013-04-05 13:45:00,
2013-04-05 09:50:00,45.4,42.9,29.91,NW,312,0.0,6.0,91,0.00,,,0.03,WUHU216DAVISVP2,2013-04-05 13:50:00,
2013-04-05 09:55:00,45.2,42.7,29.91,NW,312,0.0,2.0,91,0.00,,,0.03,WUHU216DAVISVP2,2013-04-05 13:55:00,
2013-04-05 10:00:00,45.4,42.9,29.91,NW,312,0.0,2.0,91,0.00,,,0.03,WUHU216DAVISVP2,2013-04-05 14:00:00,
2013-04-05 10:05:00,45.5,43.0,29.91,NW,306,0.0,4.0,91,0.00,,,0.03,WUHU216DAVISVP2,2013-04-05 14:05:00,
2013-04-05 10:10:00,45.7,43.2,29.91,NW,306,0.0,4.0,91,0.00,,,0.03,WUHU216DAVISVP2,2013-04-05 14:10:00,
2013-04-05 10:15:00,45.7,43.2,29.93,NW,306,0.0,1.0,91,0.00,,,0.03,WUHU216DAVISVP2,2013-04-05 14:15:00,
2013-04-05 10:20:00,45.8,43.3,29.93,NW,306,1.0,1.0,91,0.00,,,0.03,WUHU216DAVISVP2,2013-04-05 14:20:00,
2013-04-05 10:25:00,46.0,43.5,29.93,NW,306,0.0,2.0,91,0.00,,,0.03,WUHU216DAVISVP2,2013-04-05 14:25:00,
2013-04-05 10:30:00,45.8,43.3,29.92,NW,308,0.0,2.0,91,0.00,,,0.03,WUHU216DAVISVP2,2013-04-05 14:30:00,
2013-04-05 10:35:00,45.8,43.3,29.92,NW,309,0.0,2.0,91,0.00,,,0.03,WUHU216DAVISVP2,2013-04-05 14:35:00,
2013-04-05 10:40:00,45.8,43.3,29.92,NW,309,1.0,4.0,91,0.00,,,0.03,WUHU216DAVISVP2,2013-04-05 14:40:00,
2013-04-05 10:45:00,45.8,43.3,29.93,NW,309,0.0,4.0,91,0.00,,,0.03,WUHU216DAVISVP2,2013-04-05 14:45:00,
2013-04-05 10:51:00,45.8,43.3,29.93,NW,311,0.0,0.0,91,0.00,,,0.03,WUHU216DAVISVP2,2013-04-05 14:51:00,
2013-04-05 10:56:00,46.0,43.5,29.93,NW,312,0.0,4.0,91,0.00,,,0.03,WUHU216DAVISVP2,2013-04-05 14:56:00,
2013-04-05 11:01:00,46.1,43.6,29.93,NW,312,1.0,4.0,91,0.00,,,0.03,WUHU216DAVISVP2,2013-04-05 15:01:00,
2013-04-05 11:07:00,46.4,43.9,29.93,NW,316,1.0,4.0,91,0.00,,,0.03,WUHU216DAVISVP2,2013-04-05 15:07:00,
2013-04-05 11:12:00,46.7,44.2,29.93,NW,319,4.0,4.0,91,0.00,,,0.03,WUHU216DAVISVP2,2013-04-05 15:12:00,
2013-04-05 11:17:00,46.7,43.9,29.93,North,0,2.0,6.0,90,0.00,,,0.03,WUHU216DAVISVP2,2013-04-05 15:17:00,
2013-04-05 11:22:00,47.0,44.2,29.93,NW,318,1.0,6.0,90,0.00,,,0.03,WUHU216DAVISVP2,2013-04-05 15:22:00,
2013-04-05 11:27:00,47.3,44.5,29.93,WNW,299,1.0,6.0,90,0.00,,,0.03,WUHU216DAVISVP2,2013-04-05 15:27:00,
2013-04-05 11:32:00,48.2,45.4,29.92,North,0,1.0,6.0,90,0.00,,,0.03,WUHU216DAVISVP2,2013-04-05 15:32:00,
2013-04-05 11:37:00,48.5,45.7,29.92,West,265,1.0,7.0,90,0.00,,,0.03,WUHU216DAVISVP2,2013-04-05 15:37:00,
2013-04-05 11:42:00,49.1,46.3,29.92,North,0,7.0,8.0,90,0.00,,,0.03,WUHU216DAVISVP2,2013-04-05 15:42:00,
2013-04-05 11:47:00,49.8,46.9,29.91,North,359,2.0,9.0,90,0.00,,,0.03,WUHU216DAVISVP2,2013-04-05 15:47:00,
2013-04-05 11:52:00,50.4,47.2,29.91,North,0,8.0,9.0,89,0.00,,,0.03,WUHU216DAVISVP2,2013-04-05 15:52:00,
2013-04-05 11:57:00,51.0,47.8,29.91,NNW,328,6.0,8.0,89,0.00,,,0.03,WUHU216DAVISVP2,2013-04-05 15:57:00,
2013-04-05 12:02:00,51.0,47.2,29.91,North,357,6.0,10.0,87,0.00,,,0.03,WUHU216DAVISVP2,2013-04-05 16:02:00,
2013-04-05 12:07:00,51.3,47.5,29.91,NW,318,1.0,10.0,87,0.00,,,0.03,WUHU216DAVISVP2,2013-04-05 16:07:00,
2013-04-05 12:13:00,51.6,47.8,29.91,North,0,7.0,9.0,87,0.00,,,0.03,WUHU216DAVISVP2,2013-04-05 16:13:00,
2013-04-05 12:18:00,51.9,47.8,29.90,North,11,2.0,10.0,86,0.00,,,0.03,WUHU216DAVISVP2,2013-04-05 16:18:00,
2013-04-05 12:23:00,51.9,47.8,29.90,North,0,1.0,10.0,86,0.00,,,0.03,WUHU216DAVISVP2,2013-04-05 16:23:00,
2013-04-05 12:28:00,51.9,47.8,29.90,NNW,340,8.0,8.0,86,0.00,,,0.03,WUHU216DAVISVP2,2013-04-05 16:28:00,
2013-04-05 12:33:00,52.2,47.8,29.91,NE,34,0.0,8.0,85,0.00,,,0.03,WUHU216DAVISVP2,2013-04-05 16:33:00,
2013-04-05 12:38:00,52.8,48.4,29.91,NE,56,2.0,7.0,85,0.00,,,0.03,WUHU216DAVISVP2,2013-04-05 16:38:00,
2013-04-05 12:43:00,52.9,47.9,29.91,SW,226,4.0,9.0,83,0.00,,,0.03,WUHU216DAVISVP2,2013-04-05 16:43:00,
2013-04-05 12:48:00,53.1,48.1,29.89,North,7,1.0,9.0,83,0.00,,,0.03,WUHU216DAVISVP2,2013-04-05 16:48:00,
2013-04-05 12:53:00,53.2,48.2,29.89,North,359,1.0,8.0,83,0.00,,,0.03,WUHU216DAVISVP2,2013-04-05 16:53:00,
2013-04-05 12:58:00,53.6,48.6,29.89,West,281,4.0,6.0,83,0.00,,,0.03,WUHU216DAVISVP2,2013-04-05 16:58:00,
2013-04-05 13:03:00,53.9,48.6,29.88,West,271,0.0,6.0,82,0.00,,,0.03,WUHU216DAVISVP2,2013-04-05 17:03:00,
2013-04-05 13:08:00,54.4,49.0,29.88,West,271,0.0,6.0,82,0.00,,,0.03,WUHU216DAVISVP2,2013-04-05 17:08:00,
2013-04-05 13:13:00,54.8,49.4,29.88,North,1,4.0,7.0,82,0.00,,,0.03,WUHU216DAVISVP2,2013-04-05 17:13:00,
2013-04-05 13:18:00,55.3,49.6,29.87,North,0,0.0,7.0,81,0.00,,,0.03,WUHU216DAVISVP2,2013-04-05 17:18:00,
2013-04-05 13:23:00,55.3,49.3,29.87,NNW,347,1.0,6.0,80,0.00,,,0.03,WUHU216DAVISVP2,2013-04-05 17:23:00,
2013-04-05 13:28:00,55.4,49.4,29.87,North,359,1.0,7.0,80,0.00,,,0.03,WUHU216DAVISVP2,2013-04-05 17:28:00,
2013-04-05 13:33:00,55.9,49.2,29.87,East,85,1.0,7.0,78,0.00,,,0.03,WUHU216DAVISVP2,2013-04-05 17:33:00,
2013-04-05 13:38:00,55.9,49.2,29.87,West,265,4.0,7.0,78,0.00,,,0.03,WUHU216DAVISVP2,2013-04-05 17:38:00,
2013-04-05 13:43:00,56.3,49.9,29.87,NNW,347,1.0,7.0,79,0.00,,,0.03,WUHU216DAVISVP2,2013-04-05 17:43:00,
2013-04-05 13:48:00,56.9,50.2,29.86,NE,41,0.0,6.0,78,0.00,,,0.03,WUHU216DAVISVP2,2013-04-05 17:48:00,
2013-04-05 13:53:00,57.2,49.4,29.86,ENE,73,0.0,6.0,75,0.00,,,0.03,WUHU216DAVISVP2,2013-04-05 17:53:00,
2013-04-05 13:58:00,56.7,49.0,29.86,ENE,73,2.0,4.0,75,0.00,,,0.03,WUHU216DAVISVP2,2013-04-05 17:58:00,
2013-04-05 14:04:00,57.2,49.8,29.87,NNW,328,2.0,4.0,76,0.00,,,0.03,WUHU216DAVISVP2,2013-04-05 18:04:00,
2013-04-05 14:09:00,57.3,49.9,29.87,NW,318,0.0,4.0,76,0.00,,,0.03,WUHU216DAVISVP2,2013-04-05 18:09:00,
2013-04-05 14:14:00,57.3,49.2,29.87,NW,318,0.0,2.0,74,0.00,,,0.03,WUHU216DAVISVP2,2013-04-05 18:14:00,
2013-04-05 14:19:00,58.0,49.9,29.87,North,356,4.0,6.0,74,0.00,,,0.03,WUHU216DAVISVP2,2013-04-05 18:19:00,
2013-04-05 14:25:00,58.4,49.9,29.87,North,0,0.0,6.0,73,0.00,,,0.03,WUHU216DAVISVP2,2013-04-05 18:25:00,
2013-04-05 14:30:00,58.9,50.0,29.87,North,356,1.0,6.0,72,0.00,,,0.03,WUHU216DAVISVP2,2013-04-05 18:30:00,
2013-04-05 14:35:00,59.2,50.3,29.87,North,356,4.0,4.0,72,0.00,,,0.03,WUHU216DAVISVP2,2013-04-05 18:35:00,
2013-04-05 14:40:00,59.6,49.9,29.87,North,352,1.0,4.0,70,0.00,,,0.03,WUHU216DAVISVP2,2013-04-05 18:40:00,
2013-04-05 14:45:00,59.6,49.9,29.85,NNE,18,0.0,6.0,70,0.00,,,0.03,WUHU216DAVISVP2,2013-04-05 18:45:00,
2013-04-05 14:50:00,60.2,50.5,29.85,NNW,340,2.0,6.0,70,0.00,,,0.03,WUHU216DAVISVP2,2013-04-05 18:50:00,
2013-04-05 14:55:00,60.5,50.0,29.85,NNW,344,0.0,4.0,68,0.00,,,0.03,WUHU216DAVISVP2,2013-04-05 18:55:00,
2013-04-05 15:00:00,60.5,49.6,29.85,NNE,18,0.0,4.0,67,0.00,,,0.03,WUHU216DAVISVP2,2013-04-05 19:00:00,
2013-04-05 15:06:00,60.2,48.9,29.85,NNE,13,2.0,2.0,66,0.00,,,0.03,WUHU216DAVISVP2,2013-04-05 19:06:00,
2013-04-05 15:11:00,60.4,49.1,29.85,NNW,335,2.0,4.0,66,0.00,,,0.03,WUHU216DAVISVP2,2013-04-05 19:11:00,
2013-04-05 15:16:00,60.4,48.3,29.84,WNW,296,7.0,7.0,64,0.00,,,0.03,WUHU216DAVISVP2,2013-04-05 19:16:00,
2013-04-05 15:21:00,60.9,48.8,29.84,WNW,284,2.0,7.0,64,0.00,,,0.03,WUHU216DAVISVP2,2013-04-05 19:21:00,
2013-04-05 15:26:00,61.3,48.7,29.84,WNW,294,4.0,7.0,63,0.00,,,0.03,WUHU216DAVISVP2,2013-04-05 19:26:00,
2013-04-05 15:31:00,61.5,48.5,29.84,NW,306,0.0,7.0,62,0.00,,,0.03,WUHU216DAVISVP2,2013-04-05 19:31:00,
2013-04-05 15:36:00,61.8,48.8,29.84,North,353,2.0,7.0,62,0.00,,,0.03,WUHU216DAVISVP2,2013-04-05 19:36:00,
2013-04-05 15:41:00,62.3,49.3,29.84,North,0,1.0,7.0,62,0.00,,,0.03,WUHU216DAVISVP2,2013-04-05 19:41:00,
2013-04-05 15:46:00,62.6,49.5,29.83,NNE,20,0.0,7.0,62,0.00,,,0.03,WUHU216DAVISVP2,2013-04-05 19:46:00,
2013-04-05 15:51:00,62.3,48.8,29.83,NNW,343,2.0,7.0,61,0.00,,,0.03,WUHU216DAVISVP2,2013-04-05 19:51:00,
2013-04-05 15:56:00,61.8,47.9,29.83,NNW,347,0.0,4.0,60,0.00,,,0.03,WUHU216DAVISVP2,2013-04-05 19:56:00,
2013-04-05 16:01:00,61.3,47.0,29.82,NNW,347,0.0,2.0,59,0.00,,,0.03,WUHU216DAVISVP2,2013-04-05 20:01:00,
2013-04-05 16:06:00,61.8,48.3,29.82,North,353,2.0,7.0,61,0.00,,,0.03,WUHU216DAVISVP2,2013-04-05 20:06:00,
2013-04-05 16:12:00,62.0,48.1,29.82,NW,318,0.0,9.0,60,0.00,,,0.03,WUHU216DAVISVP2,2013-04-05 20:12:00,
2013-04-05 16:17:00,61.8,47.4,29.82,NW,318,0.0,9.0,59,0.00,,,0.03,WUHU216DAVISVP2,2013-04-05 20:17:00,
2013-04-05 16:22:00,61.6,47.7,29.82,NNW,330,1.0,2.0,60,0.00,,,0.03,WUHU216DAVISVP2,2013-04-05 20:22:00,
2013-04-05 16:27:00,61.5,46.7,29.82,NE,55,0.0,2.0,58,0.00,,,0.03,WUHU216DAVISVP2,2013-04-05 20:27:00,
2013-04-05 16:33:00,61.5,47.2,29.82,North,349,1.0,2.0,59,0.00,,,0.03,WUHU216DAVISVP2,2013-04-05 20:33:00,
2013-04-05 16:37:00,62.0,47.6,29.82,WNW,291,0.0,2.0,59,0.00,,,0.03,WUHU216DAVISVP2,2013-04-05 20:37:00,
2013-04-05 16:42:00,62.6,47.3,29.82,WNW,292,0.0,4.0,57,0.00,,,0.03,WUHU216DAVISVP2,2013-04-05 20:42:00,
2013-04-05 16:47:00,63.2,47.8,29.82,North,6,7.0,8.0,57,0.00,,,0.03,WUHU216DAVISVP2,2013-04-05 20:47:00,
2013-04-05 16:52:00,62.9,47.5,29.82,NNW,328,0.0,8.0,57,0.00,,,0.03,WUHU216DAVISVP2,2013-04-05 20:52:00,
2013-04-05 16:57:00,62.6,47.7,29.82,North,356,0.0,6.0,58,0.00,,,0.03,WUHU216DAVISVP2,2013-04-05 20:57:00,
2013-04-05 17:02:00,62.4,47.6,29.83,North,356,0.0,4.0,58,0.00,,,0.03,WUHU216DAVISVP2,2013-04-05 21:02:00,
2013-04-05 17:07:00,62.7,47.4,29.83,North,0,6.0,6.0,57,0.00,,,0.03,WUHU216DAVISVP2,2013-04-05 21:07:00,
2013-04-05 17:12:00,62.7,47.4,29.83,North,0,4.0,6.0,57,0.00,,,0.03,WUHU216DAVISVP2,2013-04-05 21:12:00,
2013-04-05 17:17:00,62.4,47.1,29.83,NNE,13,1.0,8.0,57,0.00,,,0.03,WUHU216DAVISVP2,2013-04-05 21:17:00,
2013-04-05 17:22:00,62.9,48.0,29.83,North,1,2.0,8.0,58,0.00,,,0.03,WUHU216DAVISVP2,2013-04-05 21:22:00,
2013-04-05 17:27:00,63.5,47.6,29.83,NNE,28,6.0,6.0,56,0.00,,,0.03,WUHU216DAVISVP2,2013-04-05 21:27:00,
2013-04-05 17:32:00,63.9,47.5,29.83,NNE,28,0.0,6.0,55,0.00,,,0.03,WUHU216DAVISVP2,2013-04-05 21:32:00,
2013-04-05 17:38:00,64.3,47.4,29.83,NW,312,0.0,6.0,54,0.00,,,0.03,WUHU216DAVISVP2,2013-04-05 21:38:00,
2013-04-05 17:43:00,64.8,47.3,29.83,North,0,2.0,7.0,53,0.00,,,0.03,WUHU216DAVISVP2,2013-04-05 21:43:00,
2013-04-05 17:48:00,64.8,47.3,29.83,North,350,1.0,7.0,53,0.00,,,0.03,WUHU216DAVISVP2,2013-04-05 21:48:00,
2013-04-05 17:53:00,65.0,47.0,29.83,NNW,344,2.0,4.0,52,0.00,,,0.03,WUHU216DAVISVP2,2013-04-05 21:53:00,
2013-04-05 17:58:00,64.7,46.7,29.83,NW,319,1.0,4.0,52,0.00,,,0.03,WUHU216DAVISVP2,2013-04-05 21:58:00,
2013-04-05 18:03:00,64.3,46.4,29.84,NW,318,0.0,2.0,52,0.00,,,0.03,WUHU216DAVISVP2,2013-04-05 22:03:00,
2013-04-05 18:08:00,63.5,46.1,29.84,SW,226,1.0,2.0,53,0.00,,,0.03,WUHU216DAVISVP2,2013-04-05 22:08:00,
2013-04-05 18:13:00,62.7,45.9,29.84,WSW,250,0.0,4.0,54,0.00,,,0.03,WUHU216DAVISVP2,2013-04-05 22:13:00,
2013-04-05 18:18:00,62.3,46.0,29.84,WSW,251,0.0,4.0,55,0.00,,,0.03,WUHU216DAVISVP2,2013-04-05 22:18:00,
2013-04-05 18:23:00,61.8,46.5,29.84,WSW,251,0.0,2.0,57,0.00,,,0.03,WUHU216DAVISVP2,2013-04-05 22:23:00,
2013-04-05 18:28:00,61.3,46.0,29.84,WSW,251,0.0,0.0,57,0.00,,,0.03,WUHU216DAVISVP2,2013-04-05 22:28:00,
2013-04-05 18:33:00,60.9,45.7,29.85,WSW,251,0.0,1.0,57,0.00,,,0.03,WUHU216DAVISVP2,2013-04-05 22:33:00,
2013-04-05 18:38:00,60.7,46.0,29.85,WSW,251,0.0,1.0,58,0.00,,,0.03,WUHU216DAVISVP2,2013-04-05 22:38:00,
2013-04-05 18:43:00,60.5,45.8,29.85,WSW,251,0.0,0.0,58,0.00,,,0.03,WUHU216DAVISVP2,2013-04-05 22:43:00,
2013-04-05 18:48:00,59.9,45.2,29.85,WSW,251,0.0,0.0,58,0.00,,,0.03,WUHU216DAVISVP2,2013-04-05 22:48:00,
2013-04-05 18:53:00,59.9,45.2,29.85,WSW,251,0.0,0.0,58,0.00,,,0.03,WUHU216DAVISVP2,2013-04-05 22:53:00,
2013-04-05 18:58:00,59.5,45.7,29.85,WSW,251,0.0,0.0,60,0.00,,,0.03,WUHU216DAVISVP2,2013-04-05 22:58:00,
2013-04-05 19:03:00,59.5,45.7,29.86,WSW,251,0.0,0.0,60,0.00,,,0.03,WUHU216DAVISVP2,2013-04-05 23:03:00,
2013-04-05 19:08:00,58.9,45.2,29.86,WSW,251,0.0,0.0,60,0.00,,,0.03,WUHU216DAVISVP2,2013-04-05 23:08:00,
2013-04-05 19:13:00,58.6,44.9,29.86,WSW,251,0.0,0.0,60,0.00,,,0.03,WUHU216DAVISVP2,2013-04-05 23:13:00,
2013-04-05 19:18:00,58.3,45.9,29.86,WSW,251,0.0,0.0,63,0.00,,,0.03,WUHU216DAVISVP2,2013-04-05 23:18:00,
2013-04-05 19:23:00,57.6,45.2,29.86,WSW,251,0.0,0.0,63,0.00,,,0.03,WUHU216DAVISVP2,2013-04-05 23:23:00,
2013-04-05 19:29:00,57.2,45.3,29.86,WSW,251,0.0,0.0,64,0.00,,,0.03,WUHU216DAVISVP2,2013-04-05 23:29:00,
2013-04-05 19:34:00,56.7,45.2,29.87,WSW,251,0.0,0.0,65,0.00,,,0.03,WUHU216DAVISVP2,2013-04-05 23:34:00,
2013-04-05 19:39:00,56.3,45.2,29.87,WSW,251,0.0,0.0,66,0.00,,,0.03,WUHU216DAVISVP2,2013-04-05 23:39:00,
2013-04-05 19:44:00,55.7,45.0,29.87,WSW,251,0.0,0.0,67,0.00,,,0.03,WUHU216DAVISVP2,2013-04-05 23:44:00,
2013-04-05 19:49:00,55.3,44.7,29.88,WSW,251,0.0,0.0,67,0.00,,,0.03,WUHU216DAVISVP2,2013-04-05 23:49:00,
2013-04-05 19:54:00,55.0,44.4,29.88,WSW,251,0.0,0.0,67,0.00,,,0.03,WUHU216DAVISVP2,2013-04-05 23:54:00,
2013-04-05 19:59:00,54.5,43.9,29.88,WSW,251,0.0,0.0,67,0.00,,,0.03,WUHU216DAVISVP2,2013-04-05 23:59:00,
2013-04-05 20:04:00,53.9,43.7,29.88,WSW,251,0.0,0.0,68,0.00,,,0.03,WUHU216DAVISVP2,2013-04-06 00:04:00,
2013-04-05 20:09:00,53.5,43.3,29.88,WSW,251,0.0,0.0,68,0.00,,,0.03,WUHU216DAVISVP2,2013-04-06 00:09:00,
2013-04-05 20:14:00,52.9,43.1,29.88,WSW,251,0.0,0.0,69,0.00,,,0.03,WUHU216DAVISVP2,2013-04-06 00:14:00,
2013-04-05 20:19:00,52.5,43.1,29.89,WSW,251,0.0,0.0,70,0.00,,,0.03,WUHU216DAVISVP2,2013-04-06 00:19:00,
2013-04-05 20:24:00,52.0,42.6,29.89,WSW,251,0.0,0.0,70,0.00,,,0.03,WUHU216DAVISVP2,2013-04-06 00:24:00,
2013-04-05 20:30:00,51.6,42.2,29.90,WSW,251,0.0,0.0,70,0.00,,,0.03,WUHU216DAVISVP2,2013-04-06 00:30:00,
2013-04-05 20:34:00,51.1,41.8,29.90,WSW,251,0.0,0.0,70,0.00,,,0.03,WUHU216DAVISVP2,2013-04-06 00:34:00,
2013-04-05 20:40:00,50.7,41.7,29.90,WSW,251,0.0,0.0,71,0.00,,,0.03,WUHU216DAVISVP2,2013-04-06 00:40:00,
2013-04-05 20:45:00,50.1,41.2,29.91,WSW,251,0.0,0.0,71,0.00,,,0.03,WUHU216DAVISVP2,2013-04-06 00:45:00,
2013-04-05 20:50:00,49.9,41.3,29.91,WSW,251,0.0,0.0,72,0.00,,,0.03,WUHU216DAVISVP2,2013-04-06 00:50:00,
2013-04-05 20:56:00,49.4,40.8,29.91,WSW,251,0.0,0.0,72,0.00,,,0.03,WUHU216DAVISVP2,2013-04-06 00:56:00,
2013-04-05 21:01:00,48.9,40.4,29.92,WSW,251,0.0,0.0,72,0.00,,,0.03,WUHU216DAVISVP2,2013-04-06 01:01:00,
2013-04-05 21:06:00,48.5,40.3,29.92,WSW,251,0.0,0.0,73,0.00,,,0.03,WUHU216DAVISVP2,2013-04-06 01:06:00,
2013-04-05 21:11:00,48.2,40.0,29.92,WSW,251,0.0,0.0,73,0.00,,,0.03,WUHU216DAVISVP2,2013-04-06 01:11:00,
2013-04-05 21:16:00,47.9,39.7,29.93,WSW,251,0.0,0.0,73,0.00,,,0.03,WUHU216DAVISVP2,2013-04-06 01:16:00,
2013-04-05 21:22:00,47.4,39.6,29.93,WSW,251,0.0,0.0,74,0.00,,,0.03,WUHU216DAVISVP2,2013-04-06 01:22:00,
2013-04-05 21:27:00,47.0,39.6,29.93,WSW,251,0.0,0.0,75,0.00,,,0.03,WUHU216DAVISVP2,2013-04-06 01:27:00,
2013-04-05 21:32:00,46.8,39.4,29.94,WSW,251,0.0,0.0,75,0.00,,,0.03,WUHU216DAVISVP2,2013-04-06 01:32:00,
2013-04-05 21:37:00,46.5,39.4,29.94,WSW,251,0.0,0.0,76,0.00,,,0.03,WUHU216DAVISVP2,2013-04-06 01:37:00,
2013-04-05 21:43:00,46.2,39.1,29.94,WSW,251,0.0,0.0,76,0.00,,,0.03,WUHU216DAVISVP2,2013-04-06 01:43:00,
2013-04-05 21:48:00,46.2,39.1,29.95,WSW,251,0.0,0.0,76,0.00,,,0.03,WUHU216DAVISVP2,2013-04-06 01:48:00,
2013-04-05 21:53:00,45.8,39.0,29.95,WSW,251,0.0,0.0,77,0.00,,,0.03,WUHU216DAVISVP2,2013-04-06 01:53:00,
2013-04-05 21:58:00,45.5,38.8,29.95,WSW,251,0.0,0.0,77,0.00,,,0.03,WUHU216DAVISVP2,2013-04-06 01:58:00,
2013-04-05 22:03:00,45.5,38.7,29.95,WSW,251,0.0,0.0,77,0.00,,,0.03,WUHU216DAVISVP2,2013-04-06 02:03:00,
2013-04-05 22:08:00,45.2,38.8,29.95,WSW,251,0.0,0.0,78,0.00,,,0.03,WUHU216DAVISVP2,2013-04-06 02:08:00,
2013-04-05 22:13:00,44.9,38.5,29.95,WSW,251,0.0,0.0,78,0.00,,,0.03,WUHU216DAVISVP2,2013-04-06 02:13:00,
2013-04-05 22:18:00,44.8,38.4,29.95,WSW,251,0.0,0.0,78,0.00,,,0.03,WUHU216DAVISVP2,2013-04-06 02:18:00,
2013-04-05 22:23:00,44.6,38.2,29.95,WSW,251,0.0,0.0,78,0.00,,,0.03,WUHU216DAVISVP2,2013-04-06 02:23:00,
2013-04-05 22:28:00,44.5,38.4,29.95,WSW,251,0.0,0.0,79,0.00,,,0.03,WUHU216DAVISVP2,2013-04-06 02:28:00,
2013-04-05 22:33:00,44.5,38.4,29.95,WSW,251,0.0,0.0,79,0.00,,,0.03,WUHU216DAVISVP2,2013-04-06 02:33:00,
2013-04-05 22:38:00,44.5,38.4,29.95,WSW,251,0.0,0.0,79,0.00,,,0.03,WUHU216DAVISVP2,2013-04-06 02:38:00,
2013-04-05 22:57:00,43.6,37.8,29.95,WSW,251,0.0,0.0,80,0.00,,,0.03,WUHU216DAVISVP2,2013-04-06 02:57:00,
2013-04-05 23:02:00,43.5,37.8,29.96,WSW,251,0.0,0.0,80,0.00,,,0.03,WUHU216DAVISVP2,2013-04-06 03:02:00,
2013-04-05 23:07:00,43.5,37.7,29.96,WSW,251,0.0,0.0,80,0.00,,,0.03,WUHU216DAVISVP2,2013-04-06 03:07:00,
2013-04-05 23:12:00,43.3,37.6,29.96,WSW,251,0.0,0.0,80,0.00,,,0.03,WUHU216DAVISVP2,2013-04-06 03:12:00,
2013-04-05 23:17:00,43.3,37.6,29.95,WSW,251,0.0,0.0,80,0.00,,,0.03,WUHU216DAVISVP2,2013-04-06 03:17:00,
2013-04-05 23:22:00,43.3,37.5,29.95,WSW,251,0.0,0.0,80,0.00,,,0.03,WUHU216DAVISVP2,2013-04-06 03:22:00,
2013-04-05 23:27:00,43.6,37.9,29.95,WSW,251,0.0,0.0,80,0.00,,,0.03,WUHU216DAVISVP2,2013-04-06 03:27:00,
2013-04-05 23:32:00,43.6,37.9,29.96,WSW,251,0.0,0.0,80,0.00,,,0.03,WUHU216DAVISVP2,2013-04-06 03:32:00,
2013-04-05 23:37:00,43.9,38.2,29.96,WSW,251,0.0,0.0,80,0.00,,,0.03,WUHU216DAVISVP2,2013-04-06 03:37:00,
2013-04-05 23:42:00,43.9,38.8,29.96,WSW,251,0.0,0.0,82,0.00,,,0.03,WUHU216DAVISVP2,2013-04-06 03:42:00,
2013-04-05 23:47:00,43.8,38.7,29.96,WSW,251,0.0,0.0,82,0.00,,,0.03,WUHU216DAVISVP2,2013-04-06 03:47:00,
2013-04-05 23:52:00,43.6,38.5,29.96,WSW,251,0.0,0.0,82,0.00,,,0.03,WUHU216DAVISVP2,2013-04-06 03:52:00,
2013-04-05 23:58:00,43.5,38.4,29.96,WSW,251,0.0,0.0,82,0.00,,,0.03,WUHU216DAVISVP2,2013-04-06 03:58:00,